TimeAEST,TemperatureF,Dew PointF,Humidity,Sea Level PressureIn,VisibilityMPH,Wind Direction,Wind SpeedMPH,Gust SpeedMPH,PrecipitationIn,Events,Conditions,WindDirDegrees,DateUTC
12:00 AM,49,44,79,30.31,,East,3.5,,,,,80,2013-05-10 14:00:00
12:00 AM,48.2,44.6,87,30.30,6.2,East,3.5,-,N/A,,Unknown,80,2013-05-10 14:00:00
12:30 AM,48.2,44.6,87,30.30,6.2,East,1.2,-,N/A,,Unknown,80,2013-05-10 14:30:00
1:00 AM,46.4,42.8,87,30.27,6.2,ENE,1.2,-,N/A,,Unknown,60,2013-05-10 15:00:00
1:30 AM,48.2,44.6,87,30.27,6.2,Calm,Calm,-,N/A,,Unknown,0,2013-05-10 15:30:00
2:00 AM,46.4,42.8,87,30.27,6.2,SSE,3.5,-,N/A,,Unknown,150,2013-05-10 16:00:00
2:30 AM,48.2,44.6,87,30.27,6.2,ENE,1.2,-,N/A,,Unknown,70,2013-05-10 16:30:00
3:00 AM,47,42,78,30.28,,NE,4.6,,,,,50,2013-05-10 17:00:00
3:00 AM,46.4,42.8,87,30.27,6.2,NE,4.6,-,N/A,,Unknown,50,2013-05-10 17:00:00
3:30 AM,50.0,44.6,82,30.27,6.2,NNE,4.6,-,N/A,,Unknown,20,2013-05-10 17:30:00
4:00 AM,50.0,46.4,87,30.27,6.2,NE,5.8,-,N/A,,Unknown,40,2013-05-10 18:00:00
4:30 AM,48.2,42.8,82,30.27,6.2,NNW,2.3,-,N/A,,Unknown,340,2013-05-10 18:30:00
5:00 AM,48.2,44.6,87,30.27,6.2,Calm,Calm,-,N/A,,Unknown,0,2013-05-10 19:00:00
5:30 AM,48.2,42.8,82,30.27,6.2,Calm,Calm,-,N/A,,Unknown,0,2013-05-10 19:30:00
6:00 AM,49,45,83,30.28,,ENE,5.8,,,,,60,2013-05-10 20:00:00
6:00 AM,50.0,44.6,82,30.27,6.2,ENE,5.8,-,N/A,,Unknown,60,2013-05-10 20:00:00
6:30 AM,50.0,46.4,87,30.27,6.2,ENE,6.9,-,N/A,,Unknown,70,2013-05-10 20:30:00
7:00 AM,51.8,46.4,82,30.27,6.2,ENE,9.2,-,N/A,,Unknown,70,2013-05-10 21:00:00
7:30 AM,51.8,46.4,82,30.30,6.2,East,6.9,-,N/A,,Unknown,80,2013-05-10 21:30:00
8:00 AM,51.8,46.4,82,30.30,6.2,ESE,4.6,-,N/A,,Unknown,110,2013-05-10 22:00:00
8:30 AM,53.6,50.0,88,30.30,6.2,ESE,6.9,-,N/A,,Unknown,120,2013-05-10 22:30:00
9:00 AM,55,49,74,30.31,,NE,2.3,,,,,50,2013-05-10 23:00:00
9:00 AM,55.4,48.2,77,30.30,6.2,NE,2.3,-,N/A,,Unknown,50,2013-05-10 23:00:00
9:30 AM,60.8,51.8,72,30.30,6.2,North,5.8,-,N/A,,Scattered Clouds,360,2013-05-10 23:30:00
10:00 AM,64.4,48.2,56,30.30,6.2,North,13.8,-,N/A,,Scattered Clouds,360,2013-05-11 00:00:00
10:30 AM,68.0,48.2,49,30.30,6.2,North,10.4,-,N/A,,Scattered Clouds,360,2013-05-11 00:30:00
11:00 AM,71.6,46.4,41,30.27,6.2,North,13.8,-,N/A,,Unknown,10,2013-05-11 01:00:00
11:30 AM,75.2,46.4,36,30.27,6.2,North,16.1,-,N/A,,Scattered Clouds,360,2013-05-11 01:30:00
12:00 PM,75,45,24,30.26,,North,19.6,,,,,0,2013-05-11 02:00:00
12:00 PM,75.2,44.6,34,30.24,6.2,North,19.6,-,N/A,,Unknown,360,2013-05-11 02:00:00
12:30 PM,77.0,44.6,32,30.21,6.2,North,20.7,-,N/A,,Unknown,10,2013-05-11 02:30:00
1:00 PM,77.0,44.6,32,30.21,6.2,North,23.0,-,N/A,,Unknown,10,2013-05-11 03:00:00
1:30 PM,77.0,44.6,32,30.18,6.2,North,23.0,-,N/A,,Unknown,10,2013-05-11 03:30:00
2:00 PM,77.0,42.8,29,30.18,6.2,North,20.7,-,N/A,,Unknown,360,2013-05-11 04:00:00
2:30 PM,77.0,41.0,28,30.15,6.2,North,20.7,-,N/A,,Unknown,360,2013-05-11 04:30:00
3:00 PM,76,39,17,30.18,,North,18.4,,,,,0,2013-05-11 05:00:00
3:00 PM,75.2,39.2,27,30.15,6.2,North,18.4,-,N/A,,Unknown,360,2013-05-11 05:00:00
3:30 PM,75.2,41.0,29,30.15,6.2,North,17.3,-,N/A,,Unknown,360,2013-05-11 05:30:00
4:00 PM,75.2,41.0,29,30.15,6.2,North,15.0,-,N/A,,Unknown,10,2013-05-11 06:00:00
4:30 PM,73.4,41.0,31,30.15,6.2,North,16.1,-,N/A,,Unknown,10,2013-05-11 06:30:00
5:00 PM,71.6,41.0,33,30.12,6.2,NNE,15.0,-,N/A,,Unknown,20,2013-05-11 07:00:00
5:30 PM,69.8,41.0,35,30.12,6.2,NNE,11.5,-,N/A,,Unknown,30,2013-05-11 07:30:00
6:00 PM,67,41,27,30.15,,NNE,10.4,,,,,30,2013-05-11 08:00:00
6:00 PM,66.2,41.0,40,30.12,6.2,NNE,10.4,-,N/A,,Unknown,30,2013-05-11 08:00:00
6:30 PM,66.2,42.8,43,30.15,6.2,NNE,10.4,-,N/A,,Unknown,30,2013-05-11 08:30:00
7:00 PM,62.6,42.8,48,30.15,6.2,NE,10.4,-,N/A,,Unknown,40,2013-05-11 09:00:00
7:30 PM,62.6,42.8,48,30.15,6.2,NNE,9.2,-,N/A,,Unknown,30,2013-05-11 09:30:00
8:00 PM,59.0,42.8,55,30.15,6.2,North,4.6,-,N/A,,Unknown,10,2013-05-11 10:00:00
8:30 PM,53.6,41.0,62,30.15,6.2,North,5.8,-,N/A,,Unknown,350,2013-05-11 10:30:00
9:00 PM,59,44,46,30.17,,NNE,9.2,,,,,30,2013-05-11 11:00:00
9:00 PM,59.0,44.6,59,30.15,6.2,NNE,9.2,-,N/A,,Unknown,30,2013-05-11 11:00:00
9:30 PM,55.4,42.8,63,30.15,6.2,NE,3.5,-,N/A,,Unknown,40,2013-05-11 11:30:00
10:00 PM,51.8,41.0,67,30.15,6.2,Calm,Calm,-,N/A,,Unknown,0,2013-05-11 12:00:00
10:30 PM,53.6,42.8,67,30.12,6.2,NE,8.1,-,N/A,,Unknown,40,2013-05-11 12:30:00
11:00 PM,57.2,44.6,63,30.12,6.2,NE,11.5,-,N/A,,Unknown,50,2013-05-11 13:00:00
11:30 PM,59.0,44.6,59,30.09,6.2,NE,10.4,-,N/A,,Scattered Clouds,50,2013-05-11 13:30:00